| time (UTC) | temp F | wind direction | speed MPH | gust MPH | rain 1hr in | rain 24hr in | rain mn in | humidity % | barometer mb |
| 20260905072919 | 60 | 54 | 5.0 | 7.0 | 0.00 | 0.00 | 0.00 | 94 | 1010.0 |
| 20260905070933 | 61 | 22 | 4.0 | 7.0 | 0.00 | 0.00 | 0.00 | 93 | 1010.1 |
| 20260905065427 | 61 | 34 | 2.0 | 6.0 | 0.00 | 0.00 | 0.00 | 93 | 1010.2 |
| 20260905063916 | 62 | 63 | 2.0 | 5.0 | 0.00 | 0.00 | 0.00 | 93 | 1010.1 |
| 20260905061933 | 62 | 82 | 5.0 | 10.0 | 0.00 | 0.00 | 0.00 | 93 | 1009.7 |
| 20260905055944 | 62 | 86 | 5.0 | 9.0 | 0.00 | 0.00 | 0.00 | 92 | 1009.7 |
| 20260905054424 | 63 | 93 | 7.0 | 10.0 | 0.00 | 0.00 | 0.00 | 92 | 1009.4 |
| 20260905052914 | 63 | 76 | 7.0 | 11.0 | 0.00 | 0.00 | 0.00 | 91 | 1009.5 |
| 20260905050933 | 64 | 84 | 6.0 | 11.0 | 0.00 | 0.00 | 0.00 | 91 | 1009.7 |
| 20260905045430 | 64 | 84 | 7.0 | 13.0 | 0.00 | 0.00 | 0.00 | 91 | 1009.7 |
| 20260905043417 | 64 | 91 | 8.0 | 14.0 | 0.00 | 0.00 | 0.00 | 90 | 1009.7 |
| 20260905041917 | 64 | 78 | 10.0 | 13.0 | 0.00 | 0.00 | 0.00 | 91 | 1009.9 |
| 20260905040409 | 64 | 69 | 7.0 | 12.0 | 0.00 | 0.00 | 0.00 | 90 | 1010.0 |
| 20260905034435 | 63 | 73 | 8.0 | 12.0 | 0.00 | 0.00 | 0.00 | 90 | 1010.0 |
| 20260905032929 | 63 | 70 | 7.0 | 12.0 | 0.00 | 0.00 | 0.00 | 91 | 1010.1 |
| 20260905031427 | 62 | 74 | 6.0 | 10.0 | 0.00 | 0.00 | 0.00 | 91 | 1010.1 |
| 20260905024939 | 62 | 56 | 5.0 | 7.0 | 0.00 | 0.00 | 0.00 | 91 | 1010.0 |
| 20260905022937 | 63 | 59 | 4.0 | 7.0 | 0.00 | 0.00 | 0.00 | 90 | 1010.0 |
| 20260905021435 | 63 | 53 | 3.0 | 5.0 | 0.00 | 0.00 | 0.00 | 89 | 1010.0 |
| 20260905015915 | 64 | 54 | 4.0 | 5.0 | 0.00 | 0.00 | 0.00 | 88 | 1009.8 |
| 20260905013929 | 66 | 60 | 3.0 | 5.0 | 0.00 | 0.00 | 0.00 | 84 | 1009.7 |
| 20260905012416 | 69 | 86 | 3.0 | 7.0 | 0.00 | 0.00 | 0.00 | 80 | 1009.4 |
| 20260905010434 | 72 | 105 | 8.0 | 13.0 | 0.00 | 0.00 | 0.00 | 74 | 1009.1 |
| 20260905004930 | 73 | 118 | 9.0 | 15.0 | 0.00 | 0.00 | 0.00 | 72 | 1009.0 |
| 20260905002924 | 75 | 74 | 12.0 | 17.0 | 0.00 | 0.00 | 0.00 | 69 | 1009.0 |
| 20260905001422 | 76 | 78 | 11.0 | 18.0 | 0.00 | 0.00 | 0.00 | 69 | 1008.8 |
| 20260904235419 | 76 | 104 | 12.0 | 18.0 | 0.00 | 0.00 | 0.00 | 66 | 1008.7 |
| 20260904232925 | 77 | 77 | 13.0 | 18.0 | 0.00 | 0.00 | 0.00 | 67 | 1008.8 |
| 20260904230427 | 78 | 85 | 14.0 | 21.0 | 0.00 | 0.00 | 0.00 | 64 | 1008.9 |
| 20260904224922 | 78 | 98 | 13.0 | 19.0 | 0.00 | 0.00 | 0.00 | 63 | 1008.9 |
| 20260904223413 | 78 | 109 | 12.0 | 19.0 | 0.00 | 0.00 | 0.00 | 63 | 1009.0 |
| 20260904221419 | 78 | 81 | 12.0 | 21.0 | 0.00 | 0.00 | 0.00 | 64 | 1009.1 |
| 20260904215435 | 78 | 94 | 14.0 | 19.0 | 0.00 | 0.00 | 0.00 | 63 | 1009.0 |
| 20260904213924 | 78 | 81 | 13.0 | 18.0 | 0.00 | 0.00 | 0.00 | 64 | 1009.0 |
| 20260904211924 | 78 | 75 | 13.0 | 19.0 | 0.00 | 0.00 | 0.00 | 63 | 1009.1 |
| 20260904210422 | 77 | 96 | 10.0 | 19.0 | 0.00 | 0.00 | 0.00 | 69 | 1009.1 |
| 20260904204434 | 77 | 91 | 11.0 | 19.0 | 0.00 | 0.00 | 0.00 | 66 | 1009.3 |
| 20260904202422 | 77 | 74 | 10.0 | 18.0 | 0.00 | 0.00 | 0.00 | 68 | 1009.8 |
| 20260904200913 | 74 | 111 | 12.0 | 16.0 | 0.00 | 0.00 | 0.00 | 74 | 1009.8 |
| 20260904194924 | 73 | 86 | 10.0 | 15.0 | 0.00 | 0.00 | 0.00 | 74 | 1009.7 |
| 20260904193408 | 73 | 100 | 9.0 | 15.0 | 0.00 | 0.00 | 0.00 | 75 | 1009.8 |
| 20260904191423 | 73 | 80 | 10.0 | 15.0 | 0.00 | 0.00 | 0.00 | 75 | 1009.8 |
| 20260904185921 | 73 | 67 | 9.0 | 15.0 | 0.00 | 0.00 | 0.00 | 75 | 1010.0 |
| 20260904183925 | 72 | 80 | 10.0 | 15.0 | 0.00 | 0.00 | 0.00 | 77 | 1010.4 |
| 20260904181931 | 70 | 61 | 10.0 | 15.0 | 0.00 | 0.00 | 0.00 | 81 | 1010.5 |
| 20260904175923 | 68 | 68 | 10.0 | 15.0 | 0.00 | 0.00 | 0.00 | 84 | 1010.5 |
| 20260904174419 | 67 | 67 | 10.0 | 15.0 | 0.00 | 0.00 | 0.00 | 86 | 1010.7 |
| 20260904172428 | 67 | 95 | 8.0 | 13.0 | 0.00 | 0.00 | 0.00 | 85 | 1011.2 |
| 20260904170925 | 68 | 92 | 10.0 | 15.0 | 0.00 | 0.00 | 0.00 | 85 | 1010.8 |
| 20260904165415 | 68 | 78 | 9.0 | 13.0 | 0.00 | 0.00 | 0.00 | 85 | 1010.5 |
| 20260904163430 | 67 | 55 | 8.0 | 13.0 | 0.00 | 0.00 | 0.00 | 88 | 1010.6 |
| 20260904161423 | 65 | 36 | 6.0 | 11.0 | 0.00 | 0.00 | 0.00 | 94 | 1010.6 |
| 20260904155428 | 62 | 55 | 5.0 | 9.0 | 0.00 | 0.00 | 0.00 | 98 | 1010.7 |
| 20260904153926 | 60 | 74 | 3.0 | 8.0 | 0.00 | 0.00 | 0.00 | 98 | 1010.7 |
| 20260904151933 | 59 | 99 | 4.0 | 8.0 | 0.00 | 0.00 | 0.00 | 98 | 1010.7 |
| 20260904150418 | 58 | 82 | 4.0 | 8.0 | 0.00 | 0.00 | 0.00 | 97 | 1010.8 |
| 20260904144432 | 58 | 92 | 6.0 | 8.0 | 0.00 | 0.00 | 0.00 | 97 | 1010.7 |
| 20260904142430 | 58 | 101 | 3.0 | 6.0 | 0.00 | 0.00 | 0.00 | 97 | 1010.7 |
| 20260904140426 | 57 | 134 | 2.0 | 7.0 | 0.00 | 0.00 | 0.00 | 97 | 1010.6 |
| 20260904134428 | 55 | 80 | 3.0 | 5.0 | 0.00 | 0.00 | 0.00 | 98 | 1010.5 |
| 20260904132920 | 53 | 101 | 3.0 | 6.0 | 0.00 | 0.00 | 0.00 | 98 | 1010.3 |
| 20260904130930 | 50 | 60 | 0.0 | 0.0 | 0.00 | 0.00 | 0.00 | 97 | 1010.2 |
| 20260904124926 | 47 | 60 | 0.0 | 0.0 | 0.00 | 0.03 | 0.00 | 97 | 1010.1 |
| 20260904122923 | 47 | 81 | 0.0 | 0.0 | 0.00 | 0.03 | 0.00 | 96 | 1010.2 |
| 20260904120925 | 48 | 81 | 0.0 | 0.0 | 0.00 | 0.03 | 0.00 | 96 | 1009.9 |
| 20260904115421 | 49 | 81 | 0.0 | 0.0 | 0.00 | 0.03 | 0.00 | 97 | 1010.0 |
| 20260904113424 | 48 | 81 | 0.0 | 0.0 | 0.00 | 0.03 | 0.00 | 97 | 1009.4 |
| 20260904111919 | 48 | 81 | 0.0 | 0.0 | 0.00 | 0.03 | 0.00 | 96 | 1009.5 |
| 20260904105923 | 51 | 84 | 0.0 | 0.0 | 0.00 | 0.03 | 0.00 | 97 | 1009.6 |
| 20260904103931 | 49 | 84 | 0.0 | 0.0 | 0.00 | 0.03 | 0.00 | 97 | 1009.6 |
| 20260904101929 | 48 | 84 | 0.0 | 0.0 | 0.00 | 0.03 | 0.00 | 96 | 1009.3 |
| 20260904095925 | 50 | 84 | 0.0 | 0.0 | 0.00 | 0.03 | 0.00 | 95 | 1009.3 |
| 20260904094419 | 51 | 84 | 0.0 | 0.0 | 0.00 | 0.03 | 0.00 | 96 | 1009.3 |
| 20260904092914 | 51 | 84 | 0.0 | 0.0 | 0.00 | 0.03 | 0.00 | 96 | 1009.3 |
| 20260904090923 | 52 | 84 | 0.0 | 0.0 | 0.00 | 0.03 | 0.00 | 95 | 1009.1 |
| 20260904085413 | 52 | 84 | 0.0 | 0.0 | 0.00 | 0.03 | 0.00 | 97 | 1008.8 |
| 20260904083432 | 50 | 94 | 0.0 | 0.0 | 0.00 | 0.03 | 0.00 | 96 | 1008.7 |
| 20260904081430 | 52 | 99 | 0.0 | 0.0 | 0.00 | 0.03 | 0.00 | 96 | 1008.8 |
| 20260904075916 | 52 | 99 | 0.0 | 0.0 | 0.00 | 0.03 | 0.00 | 95 | 1008.9 |
| 20260904073929 | 52 | 99 | 0.0 | 2.0 | 0.00 | 0.03 | 0.00 | 94 | 1008.9 |